Weatherford, OK

6:04 PM CST on February 08, 2016 (GMT -0600)
Weatherford

Weather History for KOJA - April, 2014

Change the Weather History Date:

Friday, April 25, 2014

  Actual Average (KJWG) Record (KJWG)
Temperature  
Mean Temperature 63 °F -  
Max Temperature 80 °F 74 °F 90 °F (1989)
Min Temperature 46 °F 50 °F 35 °F (2013)
Degree Days  
Heating Degree Days 2    
Growing Degree Days 13 (Base 50)    
Moisture  
Dew Point 41 °F    
Average Humidity 43    
Maximum Humidity 76    
Minimum Humidity 26    
Precipitation  
Precipitation 0.00 in - - ()
Sea Level Pressure  
Sea Level Pressure 29.91 in    
Wind  
Wind Speed 10 mph (South)    
Max Wind Speed 24 mph    
Max Gust Speed 33 mph    
Visibility 10 miles    
Events      
Averages and records for this station are not official NWS values.
T = Trace of Precipitation, MM = Missing Value Source: NWS Daily Summary

Daily Weather History Graph

Daily Weather History Graph

Search for Another Location

Airport or City:

Trip Planner

Search our weather history database for the weather conditions in past years. The results will help you decide how hot, cold, wet, or windy it might be!

Date:

Astronomy

Apr. 25, 2014 Rise Set
Actual Time 6:49 AM CDT 8:16 PM CDT
Civil Twilight 6:22 AM CDT 8:43 PM CDT
Nautical Twilight 5:50 AM CDT 9:15 PM CDT
Astronomical Twilight 5:16 AM CDT 9:49 PM CDT
Moon 4:30 AM CDT (4/25) 4:47 PM CDT (4/25)
Length of Visible Light 14h 20m
Length of Day
13h 26m
Waning Crescent, 15% of the Moon is Illuminated
Apr 25
Waning Crescent
Apr 29
New
May 6
First Quarter
May 14
Full
May 21
Last Quarter

Hourly Weather History & Observations

Time (CDT) Temp. Windchill Dew Point Humidity Pressure Visibility Wind Dir Wind Speed Gust Speed Precip Events Conditions
12:15 AM 55.4 °F - 41.0 °F 58% 29.97 in 10.0 mi SSE 4.6 mph - N/A   Clear
12:35 AM 53.6 °F - 39.2 °F 58% 29.96 in 10.0 mi SE 3.5 mph - N/A   Clear
12:55 AM 51.8 °F - 39.2 °F 62% 29.96 in 10.0 mi Calm Calm - N/A   Clear
1:15 AM 50.0 °F - 39.2 °F 66% 29.96 in 10.0 mi ESE 3.5 mph - N/A   Clear
1:35 AM 46.4 °F 45.2 °F 39.2 °F 76% 29.96 in 10.0 mi ESE 3.5 mph - N/A   Clear
1:55 AM 50.0 °F - 39.2 °F 66% 29.96 in 10.0 mi SSE 3.5 mph - N/A   Clear
2:15 AM 50.0 °F - 41.0 °F 71% 29.95 in 10.0 mi SSE 5.8 mph - N/A   Clear
2:35 AM 50.0 °F - 41.0 °F 71% 29.95 in 10.0 mi SSE 5.8 mph - N/A   Clear
2:55 AM 51.8 °F - 41.0 °F 67% 29.95 in 10.0 mi SSE 6.9 mph - N/A   Clear
3:15 AM 51.8 °F - 41.0 °F 67% 29.95 in 10.0 mi SSE 5.8 mph - N/A   Clear
3:35 AM 51.8 °F - 39.2 °F 62% 29.95 in 10.0 mi SSE 5.8 mph - N/A   Clear
3:55 AM 51.8 °F - 39.2 °F 62% 29.95 in 10.0 mi South 5.8 mph - N/A   Clear
4:15 AM 51.8 °F - 39.2 °F 62% 29.96 in 10.0 mi SSE 4.6 mph - N/A   Clear
4:35 AM 51.8 °F - 37.4 °F 58% 29.96 in 10.0 mi SSE 4.6 mph - N/A   Clear
4:55 AM 51.8 °F - 37.4 °F 58% 29.96 in 10.0 mi Calm Calm - N/A   Clear
5:15 AM 50.0 °F - 37.4 °F 62% 29.96 in 10.0 mi SSE 5.8 mph - N/A   Clear
5:35 AM 51.8 °F - 35.6 °F 54% 29.97 in 10.0 mi South 8.1 mph - N/A   Clear
5:55 AM 51.8 °F - 35.6 °F 54% 29.96 in 10.0 mi South 8.1 mph - N/A   Clear
6:15 AM 51.8 °F - 35.6 °F 54% 29.97 in 10.0 mi South 5.8 mph - N/A   Clear
6:35 AM 51.8 °F - 35.6 °F 54% 29.97 in 10.0 mi South 5.8 mph - N/A   Clear
6:55 AM 51.8 °F - 35.6 °F 54% 29.98 in 10.0 mi South 8.1 mph - N/A   Clear
7:15 AM 51.8 °F - 35.6 °F 54% 29.99 in 10.0 mi South 6.9 mph - N/A   Clear
7:35 AM 51.8 °F - 35.6 °F 54% 29.99 in 10.0 mi South 8.1 mph - N/A   Clear
7:55 AM 53.6 °F - 37.4 °F 54% 30.00 in 10.0 mi South 9.2 mph - N/A   Clear
8:15 AM 55.4 °F - 37.4 °F 51% 30.01 in 10.0 mi South 10.4 mph - N/A   Clear
8:35 AM 55.4 °F - 35.6 °F 47% 30.02 in 10.0 mi South 13.8 mph - N/A   Clear
8:55 AM 59.0 °F - 35.6 °F 42% 30.02 in 10.0 mi South 13.8 mph 18.4 mph N/A   Clear
9:15 AM 59.0 °F - 35.6 °F 42% 30.02 in 10.0 mi South 20.7 mph - N/A   Clear
9:35 AM 60.8 °F - 35.6 °F 39% 30.02 in 10.0 mi South 18.4 mph 25.3 mph N/A   Clear
9:55 AM 62.6 °F - 37.4 °F 39% 30.02 in 10.0 mi South 15.0 mph 18.4 mph N/A   Clear
10:15 AM 62.6 °F - 37.4 °F 39% 30.02 in 10.0 mi South 17.3 mph 25.3 mph N/A   Clear
10:35 AM 66.2 °F - 37.4 °F 35% 30.02 in 10.0 mi South 18.4 mph 23.0 mph N/A   Clear
10:55 AM 68.0 °F - 37.4 °F 33% 30.01 in 10.0 mi South 17.3 mph 25.3 mph N/A   Clear
11:15 AM 69.8 °F - 39.2 °F 33% 30.00 in 10.0 mi South 15.0 mph 27.6 mph N/A   Clear
11:35 AM 69.8 °F - 39.2 °F 33% 30.00 in 10.0 mi South 16.1 mph 25.3 mph N/A   Clear
11:55 AM 71.6 °F - 41.0 °F 33% 29.99 in 10.0 mi South 19.6 mph 24.2 mph N/A   Clear
12:15 PM 71.6 °F - 41.0 °F 33% 29.98 in 10.0 mi South 18.4 mph 25.3 mph N/A   Clear
12:35 PM 73.4 °F - 41.0 °F 31% 29.97 in 10.0 mi South 19.6 mph 27.6 mph N/A   Clear
12:55 PM 73.4 °F - 41.0 °F 31% 29.96 in 10.0 mi South 17.3 mph 27.6 mph N/A   Clear
1:15 PM 77.0 °F - 42.8 °F 29% 29.95 in 10.0 mi South 18.4 mph 24.2 mph N/A   Clear
1:35 PM 77.0 °F - 42.8 °F 29% 29.93 in 10.0 mi South 18.4 mph 26.5 mph N/A   Clear
1:55 PM 77.0 °F - 42.8 °F 29% 29.92 in 10.0 mi South 23.0 mph 29.9 mph N/A   Clear
2:15 PM 77.0 °F - 42.8 °F 29% 29.91 in 10.0 mi South 19.6 mph 26.5 mph N/A   Clear
2:35 PM 78.8 °F - 42.8 °F 28% 29.91 in 10.0 mi South 21.9 mph 33.4 mph N/A   Clear
2:55 PM 78.8 °F - 42.8 °F 28% 29.90 in 10.0 mi South 24.2 mph 28.8 mph N/A   Clear
3:15 PM 78.8 °F - 42.8 °F 28% 29.89 in 10.0 mi South 17.3 mph 29.9 mph N/A   Clear
3:35 PM 80.6 °F - 42.8 °F 26% 29.88 in 10.0 mi South 21.9 mph 32.2 mph N/A   Clear
3:55 PM 80.6 °F - 42.8 °F 26% 29.87 in 10.0 mi South 20.7 mph 31.1 mph N/A   Clear
4:15 PM 80.6 °F - 42.8 °F 26% 29.87 in 10.0 mi South 20.7 mph 28.8 mph N/A   Clear
4:35 PM 80.6 °F - 42.8 °F 26% 29.85 in 10.0 mi South 16.1 mph 26.5 mph N/A   Clear
4:55 PM 80.6 °F - 42.8 °F 26% 29.84 in 10.0 mi SSW 13.8 mph 23.0 mph N/A   Clear
5:15 PM 80.6 °F - 44.6 °F 28% 29.84 in 10.0 mi South 17.3 mph 28.8 mph N/A   Clear
5:35 PM 80.6 °F - 42.8 °F 26% 29.84 in 10.0 mi South 21.9 mph 27.6 mph N/A   Clear
5:55 PM 80.6 °F - 44.6 °F 28% 29.84 in 10.0 mi South 17.3 mph 26.5 mph N/A   Clear
6:15 PM 80.6 °F - 44.6 °F 28% 29.83 in 10.0 mi South 19.6 mph 28.8 mph N/A   Clear
6:35 PM 78.8 °F - 44.6 °F 30% 29.81 in 10.0 mi South 20.7 mph 31.1 mph N/A   Clear
6:55 PM 78.8 °F - 44.6 °F 30% 29.81 in 10.0 mi South 19.6 mph 27.6 mph N/A   Clear
7:15 PM 77.0 °F - 44.6 °F 32% 29.80 in 10.0 mi SSE 15.0 mph 26.5 mph N/A   Clear
7:35 PM 75.2 °F - 44.6 °F 34% 29.79 in 10.0 mi SSE 16.1 mph 20.7 mph N/A   Clear
7:55 PM 73.4 °F - 44.6 °F 36% 29.78 in 10.0 mi SSE 15.0 mph - N/A   Clear
8:15 PM 73.4 °F - 44.6 °F 36% 29.78 in 10.0 mi SSE 12.7 mph 23.0 mph N/A   Clear
8:35 PM 71.6 °F - 44.6 °F 38% 29.79 in 10.0 mi SSE 16.1 mph 23.0 mph N/A   Clear
8:55 PM 71.6 °F - 44.6 °F 38% 29.79 in 10.0 mi SSE 12.7 mph 19.6 mph N/A   Clear
9:15 PM 69.8 °F - 44.6 °F 40% 29.79 in 10.0 mi SSE 15.0 mph 20.7 mph N/A   Clear
9:35 PM 68.0 °F - 44.6 °F 43% 29.79 in 10.0 mi SSE 12.7 mph 18.4 mph N/A   Clear
9:55 PM 68.0 °F - 44.6 °F 43% 29.79 in 10.0 mi SSE 15.0 mph 23.0 mph N/A   Clear
10:15 PM 68.0 °F - 44.6 °F 43% 29.79 in 10.0 mi SSE 16.1 mph - N/A   Clear
10:35 PM 68.0 °F - 44.6 °F 43% 29.79 in 10.0 mi South 17.3 mph - N/A   Clear
11:15 PM 68.0 °F - 44.6 °F 43% 29.78 in 10.0 mi South 19.6 mph 26.5 mph N/A   Clear
11:35 PM 68.0 °F - 44.6 °F 43% 29.78 in 10.0 mi South 24.2 mph 31.1 mph N/A   Clear
11:55 PM 68.0 °F - 44.6 °F 43% 29.77 in 10.0 mi South 20.7 mph 29.9 mph N/A   Clear